Weather in Kubrinsk

Russia / Yaroslavl Oblast     56°43′01″N   38°21′50″E
temp.,
°C
wind,
m/s
gust,
m/s
humid.,
%
clouds,
%
prec.,
mm/h
press.,
hPa
HPBL,
m
24 july, sat
sat2400:00+13wnw287265 0.1 1009267
03:00+13w247027 0.1 1010137
06:00+12nw2885100 0.1 1011343
09:00+15n356645 0.4 1012874
12:00+19nnw344429 0.1 10131770
15:00+18ne1346100 0.1 1014768
18:00+16n1360100 0.0 101692
21:00+12wsw00695 0.0 101711
25 july, sun
sun2500:00+10sw22720 0.0 101822
03:00+9wsw117451 0.0 101910
06:00+13sw1262100 0.0 102047
09:00+16sw2356100 0.0 1021234
12:00+21wsw12409 0.0 10211317
15:00+21wsw3439100 0.0 10211293
18:00+21wsw344296 0.0 10211397
21:00+17wsw266238 0.0 1022137
26 july, mon
mon2600:00+14wsw1268100 0.0 102315
03:00+15sw226299 0.0 102332
06:00+15sw236299 0.0 102464
09:00+19sw255443 0.0 1023305
12:00+23wsw23425 0.0 1024988
15:00+23wsw464382 0.0 1023780
18:00+24w244426 0.0 10221498
21:00+20wsw225450 0.0 102244
27 july, tue
tue2700:00+16wsw36695 0.0 1023105
03:00+14w23795 0.0 102355
06:00+16w24775 0.0 1023114
09:00+23w23515 0.0 1022507
12:00+27w333518 0.0 10222507
15:00+27wsw333518 0.0 10201998
18:00+25wsw244789 0.0 1020355
21:00+19wsw25728 0.0 102089
28 july, wed
wed2800:00+16wsw23815 0.0 102049
03:00+15sw22843 0.0 101928
06:00+17sw24805 0.0 1018110
09:00+24sw35552 0.1 1017546
12:00+28wsw453935 0.0 10152448
15:00+26sw25446 0.0 10131119
18:00+25sw5948100 0.0 1012581
21:00+19sw2567100 0.0 1011101